sat.trackr.live / text

‹ back to catalog

COSMOS 2455

NORAD 36095 · 2009-063A

PAYLOAD ACTIVE UNKNOWN

§ Identity

Operator
Country
CIS
Launch date
2009-11-20
Launch site
PLMSC
Launch vehicle
Mass (kg)
RCS (m²)
12.18

External: N2YO · Heavens-Above · Gunter

§ Orbital elements

Epoch: 2026-09-20T01:46:34.730112Z

Period
103.07 min
Inclination
67.1500°
Eccentricity
0.0005655
Mean motion
13.97057641 rev/d
Perigee alt
899.9 km
Apogee alt
908.1 km
Semi-major
7,282.1 km
B*
1.6718e-5
RAAN
22.1330°
Arg perigee
296.7177°
Mean anomaly
63.3328°
Rev number
85,838

§ Raw data

COSMOS 24551 36095U 09063A   26263.07401308 -.00000052  00000+0  16718-4 0  99972 36095  67.1500  22.1330 0005655 296.7177  63.3328 13.97057641858385

JSON: /api/v1/satellites/36095 · /tle

For live sub-satellite position, see the globe view (requires WebGL).

§ Visibility from observer

Set your observer location to see the next 7 days of passes ≥ 10°. The values pass through the URL so the page stays shareable.

No JS? Fill the form by hand. The geolocation button needs JavaScript.